Date,TemperatureHighF,TemperatureAvgF,TemperatureLowF,DewpointHighF,DewpointAvgF,DewpointLowF,HumidityHigh,HumidityAvg,HumidityLow,PressureMaxIn,PressureMinIn,WindSpeedMaxMPH,WindSpeedAvgMPH,GustSpeedMaxMPH,PrecipitationSumIn
2013-1-1,34.5,29.2,15.4,-3.8,-12.6,-19.3,36,19,13,30.30,30.17,24,12,24,0.01
2013-1-2,31.3,16.6,7.0,-9.5,-29.1,-36.7,33,16,10,30.37,30.27,2,1,7,0.00
2013-1-3,14.4,14.4,14.4,-30.9,-30.9,-30.9,13,13,13,30.32,30.32,1,1,2,0.00
2013-1-4,35.1,27.0,14.4,-11.3,-25.1,-30.9,25,13,10,30.44,30.32,5,3,14,0.01
2013-1-5,42.8,30.0,18.5,13.0,-5.6,-22.1,44,27,10,30.44,30.23,5,2,16,0.00
2013-1-6,36.3,33.3,31.3,6.7,0.7,-2.5,31,27,25,30.22,30.12,6,4,19,0.01
2013-1-7,41.4,32.2,16.7,4.0,-10.9,-22.1,40,18,10,30.55,30.19,8,4,18,0.01
2013-1-8,50.9,38.0,22.8,-1.2,-13.5,-21.2,33,16,10,30.38,30.30,4,2,11,0.00
2013-1-9,47.1,36.4,21.7,7.0,-1.6,-14.5,51,23,11,30.61,30.27,4,1,9,0.00
2013-1-10,44.4,38.2,29.7,22.2,3.0,-19.3,46,28,10,30.62,30.16,4,2,11,0.44
2013-1-11,61.9,54.0,44.8,42.8,29.3,13.0,66,43,18,30.14,29.94,8,4,23,0.01
2013-1-12,72.0,55.6,39.6,47.7,32.6,9.0,71,47,12,30.10,29.83,6,2,102,0.00
2013-1-13,55.8,37.3,22.3,46.7,24.4,-2.8,73,60,34,30.32,29.79,7,2,21,0.41
2013-1-14,25.3,21.0,16.7,-0.2,-13.2,-30.0,38,24,10,30.56,30.33,0,0,0,0.00
2013-1-15,33.8,27.8,21.4,0.0,-9.7,-25.8,27,13,10,30.51,30.21,4,2,10,0.00
2013-1-16,40.3,30.5,23.0,2.6,-13.2,-24.4,39,21,10,30.21,30.07,4,2,11,0.00
2013-1-17,44.2,33.7,22.3,-1.2,-14.1,-18.6,25,14,10,30.53,30.20,6,2,15,0.00
2013-1-18,43.3,31.1,18.3,-8.4,-22.0,-31.4,27,15,10,30.59,30.25,9,4,49,0.38
2013-1-20,22.3,22.2,22.1,0.0,0.0,0.0,0,0,100,30.31,30.31,4,3,10,0.00
2013-1-21,22.1,17.7,11.5,0.0,-22.6,-34.8,16,8,10,30.32,30.24,8,5,20,0.00
2013-2-1,18.7,15.4,14.4,0.0,-11.4,-36.6,12,4,10,30.45,30.38,4,3,14,0.00
2013-2-2,27.9,22.6,16.5,3.0,-10.4,-35.2,37,26,10,30.37,30.10,6,3,13,0.00
2013-2-3,25.0,19.1,11.7,-9.1,-15.7,-20.7,24,20,13,30.20,30.08,5,2,11,0.00
2013-2-4,43.3,31.7,22.5,3.6,-10.4,-25.4,31,19,10,30.18,29.91,7,3,15,0.00
2013-2-5,36.3,30.2,21.4,6.5,-4.0,-18.1,38,26,12,30.15,29.94,6,2,16,0.00
2013-2-6,43.5,33.5,28.9,5.5,-12.7,-25.0,33,18,10,30.38,30.15,4,2,11,0.00
2013-2-7,58.1,41.2,27.7,6.2,-6.6,-16.8,36,21,10,30.30,29.94,4,2,11,0.00
2013-2-16,25.3,21.9,17.8,0.0,-3.0,-24.6,30,5,14,30.25,30.20,7,4,17,0.02
2013-2-17,36.9,27.5,8.2,0.0,-6.8,-18.9,28,11,23,30.35,30.25,4,2,10,0.00
2013-2-18,62.1,41.4,25.9,16.9,-6.3,-18.9,33,12,27,30.25,29.70,14,6,31,0.07
2013-2-19,46.2,27.6,22.3,22.1,-13.7,-30.8,41,20,10,30.20,29.69,11,5,26,0.00
2013-2-20,19.4,19.4,19.4,-23.6,-23.6,-23.6,13,13,13,30.42,30.42,0,0,1,0.00
2013-2-21,32.5,27.3,18.3,2.6,-18.1,-27.9,35,17,10,30.45,30.14,6,4,18,0.00
2013-2-22,35.8,31.7,27.9,13.0,9.9,3.4,44,41,34,30.14,29.96,4,1,11,0.13
2013-2-23,38.5,30.2,24.4,6.3,-10.8,-24.4,35,21,10,30.11,30.06,4,2,12,0.00
2013-2-24,28.8,26.5,24.8,-0.3,-3.4,-6.3,33,27,21,30.26,30.25,1,0,2,0.00
2013-2-25,48.7,38.7,21.2,5.1,-16.6,-21.0,40,15,10,30.28,30.02,6,3,16,0.00
2013-2-26,41.9,36.7,32.5,27.9,8.3,-21.8,58,38,10,30.01,29.52,8,3,20,1.09
2013-2-27,41.7,35.5,31.8,27.2,16.7,9.9,57,47,38,29.81,29.59,5,3,14,0.04
2013-2-28,39.4,34.7,31.6,17.1,13.3,7.8,52,43,29,30.09,29.79,5,2,17,0.02
2013-3-1,35.1,32.3,29.8,17.1,8.5,-7.9,54,40,21,30.19,30.07,4,2,16,0.04
2013-3-2,29.7,27.4,25.9,-6.9,-13.5,-24.2,22,18,12,30.21,30.18,3,2,10,0.01
2013-3-3,28.8,24.3,21.2,0.0,-12.9,-29.3,25,14,10,30.21,29.23,0,0,2,0.00
2013-3-4,41.7,30.1,17.4,1.5,-12.3,-23.2,38,21,10,30.25,29.12,5,2,12,0.01
2013-3-5,36.9,34.0,27.9,17.5,8.6,-1.6,56,38,23,30.11,28.82,4,2,11,0.11
2013-3-6,35.8,30.4,26.8,15.4,9.5,0.9,57,43,25,30.37,29.88,4,1,14,0.01
2013-3-7,44.2,33.9,29.1,10.0,-5.0,-23.2,44,25,10,30.50,30.36,3,1,11,0.28
2013-3-8,49.8,34.6,21.6,4.4,-11.4,-23.0,40,20,10,30.58,30.48,3,1,11,0.01
2013-3-9,52.7,43.4,30.9,-1.8,-14.6,-19.6,24,14,10,30.47,30.07,7,3,18,0.00
2013-3-10,69.3,58.3,51.3,-19.1,-19.1,-19.1,10,10,10,30.06,29.85,10,6,24,0.00
2013-3-11,59.9,52.3,44.1,36.3,20.3,-19.1,57,39,10,29.85,29.72,10,4,21,0.14
2013-3-12,47.1,38.5,31.8,12.2,-13.8,-22.1,41,17,10,30.13,30.06,8,4,18,0.01
2013-3-13,34.2,30.9,26.1,6.8,-20.1,-24.7,35,13,10,30.42,30.12,7,4,22,0.00
2013-3-14,47.5,36.3,21.2,4.2,-20.9,-29.3,30,13,10,30.45,30.27,4,2,10,0.00
2013-3-15,51.8,40.4,29.3,12.5,-0.7,-14.2,45,23,10,30.27,29.89,4,2,11,0.00
2013-3-16,46.9,40.5,34.0,23.4,14.0,2.5,50,36,25,30.17,29.73,5,2,18,0.04
2013-3-17,39.9,34.1,30.2,4.0,-14.2,-24.6,30,17,10,30.29,30.11,7,4,17,0.00
2013-3-18,42.8,36.7,32.2,26.4,16.4,-0.8,55,45,25,30.10,29.70,6,2,15,0.30
2013-3-19,43.9,33.1,25.5,9.0,-24.4,-28.9,33,12,10,30.22,29.96,11,6,26,0.00
2013-3-20,34.2,28.7,23.5,-28.4,-28.5,-28.5,10,10,10,30.22,30.13,8,4,23,0.00
2013-3-21,40.1,29.5,15.8,-8.0,-33.0,-34.7,28,11,10,30.16,30.09,5,2,14,0.00
2013-3-22,47.5,34.7,26.1,-17.0,-29.4,-34.7,15,10,10,30.18,30.11,4,1,11,0.00
2013-3-23,50.5,41.5,31.1,-26.3,-26.3,-26.3,10,10,10,30.20,30.04,3,2,8,0.00
2013-3-24,50.2,42.7,28.4,13.2,-12.7,-26.3,53,23,10,30.05,29.60,8,4,22,0.07
2013-3-25,39.2,31.7,27.7,17.8,10.0,-6.2,55,44,18,30.11,29.62,6,4,18,0.11
2013-3-26,44.8,35.8,30.7,11.2,-5.9,-22.1,43,23,10,30.36,30.11,6,4,17,0.00
2013-3-27,46.8,36.2,25.7,0.4,-14.6,-23.6,32,16,10,30.44,30.36,6,2,13,0.00
2013-3-28,52.3,38.9,27.9,-8.1,-18.8,-22.6,22,13,10,30.48,30.41,5,2,13,0.00
2013-3-29,61.9,46.7,32.2,0.0,-2.7,-16.6,26,6,12,30.43,30.33,4,1,10,0.00
2013-3-30,61.0,46.3,28.9,8.6,-7.0,-14.2,38,18,10,30.35,30.05,5,2,14,0.00
2013-3-31,65.3,51.4,44.2,19.2,0.3,-15.4,35,18,10,30.05,29.88,7,2,18,0.06
2013-4-1,49.1,40.8,32.9,-11.1,-18.9,-21.6,15,11,10,30.27,29.96,6,4,18,0.00
2013-4-2,49.1,36.7,26.4,-21.6,-25.6,-28.2,11,10,10,30.40,30.27,12,2,24,0.00
2013-4-3,52.5,37.5,22.5,-21.1,-26.1,-27.4,15,10,10,30.55,30.39,5,1,14,0.00
2013-4-4,63.5,45.3,32.2,-26.1,-26.1,-26.1,10,10,10,30.45,30.12,3,1,8,0.00
2013-4-5,62.4,47.1,33.1,-2.8,-18.2,-26.1,23,12,10,30.27,30.10,9,2,97,0.00
2013-4-6,42.1,41.3,37.4,-20.6,-20.6,-20.6,10,10,10,30.27,29.94,4,3,7,0.00
2013-4-7,77.9,49.3,42.1,-20.6,-20.6,-20.6,10,8,10,30.07,29.89,4,3,11,0.00
2013-4-8,75.2,65.0,54.9,29.2,10.0,-20.6,31,18,12,30.09,29.95,10,4,21,0.00
2013-4-9,83.3,74.7,58.5,25.8,6.3,2.6,31,14,11,30.11,29.81,12,6,22,0.02
2013-4-10,77.2,66.8,55.6,40.3,21.9,2.6,54,31,11,29.95,28.93,6,4,14,0.25
2013-4-11,68.4,60.1,-5.6,46.5,41.8,36.4,62,52,34,29.91,28.71,102,4,17,0.34
2013-4-12,50.9,42.5,38.3,36.2,0.8,-17.3,58,24,10,30.05,28.75,6,4,19,0.07
2013-4-13,51.1,44.3,40.8,7.4,-9.3,-17.4,27,15,10,30.14,29.07,8,3,18,0.00
2013-4-14,74.1,57.2,40.3,2.1,-7.9,-11.8,21,13,10,30.16,28.98,7,3,18,0.00
2013-4-15,70.2,61.9,54.1,11.6,-1.4,-11.8,21,12,10,30.09,29.00,7,5,19,0.00
2013-4-16,64.2,56.0,51.1,32.1,20.0,3.4,48,30,12,30.30,29.07,6,2,14,0.92
2013-4-17,74.8,58.4,47.5,42.4,31.4,21.9,54,39,18,30.34,29.06,7,3,19,0.01
2013-4-18,78.4,66.0,60.8,52.9,39.6,9.6,75,44,12,30.03,28.78,12,4,26,1.07
2013-4-19,61.0,41.3,36.5,53.2,8.4,-18.7,76,34,10,30.07,29.68,7,4,27,0.05
2013-4-20,55.0,41.2,32.4,10.6,-10.3,-19.9,36,16,10,30.52,30.07,5,3,14,0.00
2013-4-21,60.8,44.7,30.0,-6.4,-22.4,-23.5,20,10,10,30.65,30.48,5,2,14,0.00
2013-4-22,74.5,54.3,32.5,7.0,-13.9,-23.5,32,13,10,30.49,30.22,5,1,13,0.00
2013-4-23,69.6,58.1,46.6,43.1,6.7,-16.7,56,23,10,30.23,29.91,7,2,20,0.18
2013-4-24,100.9,47.1,37.8,45.0,6.8,-15.4,64,28,10,30.33,29.91,8,3,19,0.27
2013-4-25,58.5,48.7,36.1,8.2,-7.9,-15.2,32,16,10,30.49,30.31,16,4,21,0.00
2013-4-26,68.5,57.8,32.4,50.9,24.2,-15.2,68,45,10,30.55,30.44,5,3,14,0.00
2013-4-27,68.5,65.2,54.7,50.9,45.5,-5.1,68,61,10,30.45,30.13,7,3,15,0.00
2013-4-28,62.6,57.4,54.1,44.7,39.5,25.7,63,53,34,30.13,29.96,3,1,10,0.21
2013-4-29,73.0,62.0,56.1,42.8,25.6,0.1,61,36,10,30.11,30.01,5,2,14,0.00
2013-4-30,85.3,68.8,53.1,30.6,13.5,4.0,43,21,11,30.16,30.04,8,4,16,0.00
2013-5-1,90.5,73.8,53.2,33.5,7.8,-1.4,41,15,10,30.27,30.15,4,2,13,0.00
2013-5-2,84.4,71.4,58.3,28.5,8.0,0.2,34,15,10,30.30,30.17,5,2,14,0.00
2013-5-3,81.5,70.6,62.8,19.8,8.0,3.1,22,13,10,30.18,30.02,6,3,17,0.00
2013-5-4,77.0,65.3,57.6,23.1,4.8,0.8,29,12,10,30.12,30.06,5,2,14,0.00
2013-5-5,65.7,58.8,54.7,33.8,15.8,-2.8,44,25,10,30.12,30.05,4,2,15,0.06
2013-5-6,73.8,62.4,51.3,28.5,13.1,-0.7,42,21,10,30.10,30.03,5,2,15,0.00
2013-5-7,79.7,67.2,56.3,34.6,15.7,4.3,44,22,11,30.12,30.05,5,1,13,0.00
2013-5-8,86.2,70.2,55.4,41.0,18.9,-0.5,51,23,10,30.14,30.06,3,1,8,0.01
2013-5-9,86.2,66.9,58.3,47.3,22.1,2.5,62,27,10,30.12,30.01,6,1,15,0.14
2013-5-10,66.4,66.1,61.0,49.0,34.2,33.4,65,34,32,30.04,29.92,3,0,8,13.61
2013-5-11,66.7,53.2,45.7,33.4,16.3,-5.4,51,29,10,30.15,29.99,9,2,101,13.62
2013-5-12,45.7,45.7,45.7,-2.4,-2.4,-2.4,16,16,16,30.24,30.14,2,2,3,0.00
2013-5-13,45.7,45.7,45.7,-2.4,-2.4,-2.4,16,16,16,30.31,30.22,2,2,3,0.00
2013-5-14,90.1,65.4,45.7,-2.4,-2.4,-2.4,16,16,16,30.22,29.92,9,3,19,0.00
2013-5-15,91.4,79.3,69.8,15.0,2.1,-2.4,16,11,10,29.99,29.91,5,3,18,0.00
2013-5-16,88.7,79.1,66.2,48.5,16.3,7.1,51,14,11,30.09,29.95,6,2,16,0.00
2013-5-17,92.7,71.6,64.2,45.7,40.5,22.3,51,39,20,30.16,30.09,6,2,49,0.44
2013-5-18,72.1,66.6,66.2,43.7,42.6,24.3,46,44,20,30.19,30.08,2,2,5,0.44
2013-5-19,95.7,75.0,-1.7,49.8,41.0,7.2,56,39,10,30.10,29.98,42,2,49,6.02
2013-5-20,88.0,79.3,71.6,52.0,26.3,8.9,51,22,10,30.07,29.94,8,4,17,0.00
2013-5-21,87.6,75.7,64.0,43.4,34.3,5.6,48,31,10,30.01,29.87,8,4,21,0.41
2013-5-22,79.0,70.0,63.3,44.0,29.7,5.1,47,29,10,29.91,29.83,9,3,21,24.43
2013-5-23,72.7,60.6,49.3,41.9,25.4,-1.5,50,31,10,30.29,29.91,6,2,19,0.02
2013-5-24,73.2,56.3,44.2,19.5,2.9,-8.4,38,20,10,30.48,30.29,5,2,16,0.01
2013-5-25,49.6,45.8,45.3,6.8,5.9,-5.6,23,22,13,30.51,30.35,1,0,3,0.00
2013-5-26,67.1,50.1,45.3,6.8,4.7,-1.8,23,20,10,30.43,30.29,2,0,4,0.01
2013-5-27,83.5,66.3,55.2,50.4,22.9,-1.8,59,29,10,30.31,30.01,6,3,15,0.13
2013-5-28,84.7,74.2,63.7,51.1,28.4,6.9,60,30,10,30.08,30.00,8,4,23,0.01
2013-5-29,90.5,80.0,71.8,19.2,4.8,3.9,16,10,10,30.15,30.05,7,4,19,12.15
2013-5-30,90.1,79.9,70.5,29.6,13.5,3.9,25,13,10,30.20,30.06,10,5,23,0.00
2013-5-31,78.1,73.4,66.7,50.2,38.1,21.7,52,33,16,30.13,29.99,55,5,55,12.41
2013-6-1,81.1,71.4,64.6,55.5,34.7,8.7,72,35,10,30.03,29.90,7,3,21,0.05
2013-6-2,75.2,66.1,58.1,40.5,25.3,4.0,46,27,10,30.13,29.93,5,2,13,0.83
2013-6-3,75.0,60.1,45.7,20.0,6.1,-2.7,35,17,11,30.22,30.12,4,1,11,18.14
2013-6-4,77.9,64.0,46.9,30.6,20.6,-3.4,46,23,10,30.27,30.19,3,2,101,0.00
2013-6-5,88.2,74.1,54.3,22.1,2.8,-3.8,25,12,10,30.21,29.99,4,2,10,3.02
2013-6-6,81.1,70.7,61.2,12.8,-0.5,-3.8,17,11,10,30.03,29.93,4,2,56,0.00
2013-6-7,65.1,64.5,63.1,28.8,23.8,15.6,30,24,18,29.97,29.96,2,1,4,0.00
2013-6-10,87.1,74.3,-10.3,51.9,19.1,-24.6,58,19,11,30.00,29.93,28,3,28,0.01
2013-6-11,90.9,78.2,62.2,49.6,27.7,16.2,56,26,13,30.10,30.00,4,2,11,1.51
2013-6-12,95.9,83.1,70.0,49.7,26.6,14.6,46,20,10,30.05,29.78,6,2,15,0.00
2013-6-13,84.9,78.1,71.4,47.3,30.3,17.6,42,23,11,29.79,29.75,5,3,16,0.00
2013-6-17,85.8,59.6,0.0,26.2,19.1,9.5,20,3,11,30.04,30.01,1,0,3,0.00
2013-6-18,75.6,72.5,70.2,31.7,28.7,26.9,26,23,20,30.03,30.01,4,2,11,0.00
2013-6-28,89.6,78.6,70.2,32.8,15.1,6.4,25,15,10,29.84,29.77,4,2,16,0.70
2013-7-7,75.2,75.1,75.0,28.2,28.2,28.1,21,21,21,30.20,30.19,1,1,4,0.00
2013-7-8,91.6,80.7,71.6,46.1,25.8,12.6,42,20,10,30.24,30.14,4,2,14,0.00
2013-7-9,96.3,84.5,77.7,38.2,22.6,12.8,25,15,10,30.19,30.08,3,2,13,0.00
2013-7-10,91.0,81.2,69.6,47.0,28.7,12.6,41,21,10,30.12,29.96,5,2,14,0.28
2013-7-11,85.1,73.4,60.8,29.1,9.8,1.4,31,14,10,30.19,30.10,5,2,16,0.00
2013-7-12,85.6,69.7,58.1,32.7,16.5,2.2,39,20,10,30.26,30.18,5,1,14,0.00
2013-7-13,89.2,75.1,60.8,36.8,18.2,5.3,42,19,10,30.27,30.21,5,2,14,0.00
2013-7-14,95.7,81.3,66.0,44.4,23.0,13.8,44,20,11,30.33,30.27,4,1,11,0.00
2013-7-15,96.3,85.7,74.1,47.6,21.7,12.2,41,17,10,30.42,30.34,4,2,11,0.00
2013-7-16,98.2,85.0,70.9,49.0,24.7,12.8,44,19,10,30.47,30.40,3,1,8,0.00
2013-7-17,99.7,86.4,73.4,55.5,28.6,12.0,49,22,10,30.48,30.32,3,1,11,0.00
2013-7-18,101.1,86.9,73.8,53.1,29.0,12.1,49,22,10,30.35,30.16,2,1,8,0.00
2013-7-19,98.4,87.0,77.5,48.1,26.7,15.1,37,19,10,30.18,30.00,4,2,14,0.00
2013-7-20,83.3,76.7,70.9,48.9,36.2,19.5,43,28,13,30.06,29.97,4,1,14,0.17
2013-7-21,91.4,78.4,67.5,51.0,29.9,9.9,53,26,10,30.11,30.01,3,1,9,0.00
2013-7-22,91.2,77.4,70.2,48.3,33.8,11.3,47,28,10,30.04,29.91,3,1,12,0.01
2013-7-23,93.2,79.0,65.8,49.4,27.3,3.3,48,24,10,30.03,29.89,6,2,17,0.00
2013-7-24,80.8,67.3,55.4,31.3,9.5,-1.4,41,18,10,30.16,30.02,5,2,14,0.01
2013-7-25,84.7,69.1,53.8,35.2,11.8,-0.2,46,21,10,30.24,30.15,4,1,13,0.00
2013-7-26,88.2,71.6,55.8,36.2,13.2,2.7,44,19,10,30.23,30.07,4,1,14,0.00
2013-7-27,83.5,73.0,61.0,42.8,18.3,-1.4,42,20,10,30.08,29.97,5,2,16,0.00
2013-7-28,74.8,65.4,51.6,17.5,1.4,-4.8,28,14,10,30.14,30.06,4,2,11,0.07
2013-7-29,86.7,75.8,61.9,55.0,53.1,50.0,77,49,36,30.08,30.02,3,2,12,0.07
2013-7-30,82.2,68.4,55.9,62.8,57.0,52.1,87,70,48,30.11,30.01,3,1,8,0.02
2013-7-31,79.2,71.1,65.5,69.5,64.9,60.6,91,81,71,30.02,29.85,4,2,13,0.05
2013-8-1,88.0,73.8,64.0,66.4,59.8,54.1,94,67,35,29.92,29.86,5,1,15,0.00
2013-8-2,91.4,72.7,58.1,63.3,58.2,53.5,87,64,41,29.91,29.83,5,2,18,0.00
2013-8-3,90.1,75.0,65.1,67.9,62.9,52.3,96,70,41,30.00,29.85,4,1,11,0.01
2013-8-4,84.7,69.9,57.2,56.5,53.5,50.5,79,60,38,30.09,29.99,4,1,11,0.00
2013-8-5,86.2,70.9,59.9,61.6,57.1,54.1,88,66,39,30.04,29.86,3,1,10,0.00
2013-8-6,86.0,73.7,63.3,70.4,64.4,58.0,84,74,61,29.88,29.81,4,1,11,0.00
2013-8-7,90.5,78.0,71.8,72.8,70.2,68.0,95,79,53,29.85,29.77,4,2,11,0.02
2013-8-8,85.3,75.9,70.2,74.5,70.8,67.8,97,85,68,29.87,29.82,4,1,11,0.14
2013-8-9,90.7,76.9,69.3,68.5,64.8,60.6,95,70,44,29.96,29.84,3,1,10,0.00
2013-8-10,92.8,76.8,68.0,66.4,64.4,62.6,88,69,43,30.03,29.96,3,1,11,0.00
2013-8-11,91.4,75.0,64.8,69.2,63.5,60.3,94,72,40,30.04,29.97,4,1,10,0.00
2013-8-12,91.0,76.8,65.3,67.0,64.0,61.1,89,68,41,30.00,29.06,3,1,11,0.18
2013-8-13,78.6,69.9,63.9,65.7,62.0,57.2,91,78,51,29.93,29.05,5,2,14,0.00
2013-8-14,68.9,60.5,57.2,53.9,51.9,49.6,84,74,51,30.08,30.02,1,0,2,0.00
2013-8-15,79.3,72.4,63.3,55.3,54.3,53.0,75,54,42,30.09,30.06,4,1,6,0.00
2013-8-16,81.1,68.2,58.5,58.7,55.3,52.3,80,66,45,30.12,30.08,3,1,6,0.00
2013-8-17,81.0,68.3,59.0,57.3,56.3,55.5,89,68,43,30.07,30.05,2,1,4,0.00
2013-8-18,91.0,74.9,58.1,62.6,57.7,55.2,91,58,35,30.11,30.01,2,0,6,0.00
2013-8-19,94.5,81.0,62.1,63.9,60.3,56.8,83,54,37,30.05,29.98,5,1,9,0.00
2013-8-20,94.3,79.7,70.0,65.3,63.6,61.5,84,61,38,30.03,29.99,3,1,6,0.00
2013-8-21,96.4,85.2,68.0,71.2,65.6,62.9,87,55,38,30.06,29.96,3,1,11,0.00
2013-8-22,77.7,71.5,70.0,67.7,65.7,64.9,86,82,72,30.01,29.99,1,0,5,0.00
2013-8-23,89.1,76.7,64.4,67.7,63.2,59.5,95,66,43,30.07,29.99,4,2,11,0.00
2013-8-24,90.0,68.0,56.1,60.8,56.6,53.3,93,73,34,30.19,30.07,3,1,8,0.00
2013-8-25,96.1,81.2,64.8,62.9,59.7,57.5,82,52,31,30.21,30.11,3,1,7,0.00
2013-8-26,94.6,87.5,64.9,73.3,68.0,59.3,82,56,42,30.14,29.99,3,2,12,0.00
2013-8-27,99.1,89.3,73.6,74.1,70.4,67.4,86,57,41,29.96,29.87,4,2,17,0.00
2013-8-28,98.6,84.3,77.4,73.3,69.6,66.4,77,64,46,29.87,29.83,4,2,15,0.00
2013-8-29,95.4,84.9,70.3,72.6,66.7,62.6,94,58,42,29.98,29.91,4,2,12,0.00
2013-8-30,99.5,81.8,66.4,75.3,67.5,63.2,92,67,40,29.92,29.74,4,1,11,0.00
2013-8-31,76.5,72.2,70.0,71.9,68.7,67.5,92,89,82,29.77,29.72,2,0,9,0.18
2013-9-1,88.2,77.0,70.7,71.5,69.3,66.3,90,78,55,29.73,28.97,4,1,7,0.00
2013-9-2,90.5,74.2,66.4,68.6,65.4,57.2,94,77,41,29.86,28.96,4,1,14,0.00
2013-9-3,82.4,66.8,52.2,57.9,52.8,49.0,89,65,40,29.99,29.86,4,1,13,0.00
2013-9-4,89.2,66.0,53.2,59.5,54.6,50.7,93,72,37,30.07,29.98,3,1,9,0.00
2013-9-5,92.5,80.4,64.2,64.2,60.3,53.6,82,53,39,30.12,30.06,3,2,11,0.00
2013-9-6,73.9,61.3,57.2,52.9,48.4,45.7,72,64,48,30.15,30.11,2,1,8,0.00
2013-9-7,96.4,82.7,62.4,66.3,61.6,55.0,77,52,37,29.99,29.86,4,2,11,0.00
2013-9-8,95.9,80.1,67.1,68.1,65.0,60.9,91,64,41,29.92,29.84,5,1,11,0.00
2013-9-9,97.5,78.5,73.6,71.2,66.3,64.6,74,68,44,29.92,29.83,6,2,16,0.00
2013-9-10,104.7,86.1,-12.8,74.0,69.1,63.8,83,60,32,30.02,29.90,7,2,50,0.00
2013-9-11,101.7,86.4,74.8,72.4,67.3,60.5,86,58,34,30.04,29.92,4,2,14,0.00
2013-9-12,90.3,78.0,64.2,64.8,55.3,49.0,65,49,38,29.91,29.05,6,3,18,0.02
2013-9-13,75.0,63.1,53.2,52.7,46.1,41.2,77,57,35,30.03,29.16,5,2,15,0.00
2013-9-14,81.0,59.3,41.9,44.2,40.3,37.4,89,59,26,30.11,30.00,3,1,11,0.00
2013-9-15,75.0,61.7,59.0,56.5,54.9,51.0,87,80,43,30.05,29.94,2,1,4,0.00
2013-9-16,67.5,61.8,52.2,55.3,50.6,47.3,88,68,56,30.20,30.07,6,2,14,0.01
2013-9-17,81.9,63.5,46.9,53.3,48.5,43.9,90,63,36,30.24,30.06,16,1,16,0.00
2013-9-18,89.1,72.5,60.8,64.4,57.0,49.1,74,61,44,30.06,29.93,4,1,11,0.00
2013-9-19,74.8,70.6,66.2,69.2,65.3,63.5,96,84,74,29.98,29.86,4,2,8,0.01
2013-9-20,84.0,73.8,67.1,70.6,67.6,64.4,94,82,61,29.86,29.72,11,2,13,0.58
2013-9-21,76.1,61.0,-0.4,65.1,54.2,48.2,94,78,43,29.75,29.69,6,2,27,0.00
2013-9-24,85.6,65.8,-20.7,55.6,41.3,-38.7,54,43,35,29.96,29.83,3,2,11,0.00
2013-9-25,85.5,71.4,-15.2,56.7,49.8,-29.4,80,50,35,29.85,29.79,6,2,10,0.00
2013-9-26,88.2,66.0,48.9,55.9,51.0,46.4,93,64,35,29.99,29.85,3,1,10,0.00
2013-9-27,58.1,52.9,49.3,50.1,47.9,46.2,89,83,74,30.05,29.99,0,0,2,0.00
2013-10-11,87.8,72.0,53.2,51.8,49.8,48.1,85,51,32,30.00,29.93,2,1,8,0.00
2013-10-12,53.2,51.8,50.2,49.3,48.5,47.4,90,89,86,29.97,29.95,0,0,0,0.00
2013-10-13,79.9,61.5,43.2,46.6,42.0,38.0,82,52,30,30.27,30.19,4,2,7,0.00
2013-10-14,80.6,64.2,41.2,49.4,44.1,37.9,89,53,32,30.27,30.10,2,1,10,0.00
2013-10-15,67.5,61.1,49.8,61.7,55.5,42.4,92,82,69,30.09,29.07,7,3,15,0.00
2013-10-16,70.9,58.4,44.4,61.4,47.3,39.1,89,69,43,29.89,29.05,4,2,14,0.00
2013-10-17,57.2,46.7,21.2,46.8,41.0,17.7,91,81,64,29.88,29.05,3,1,12,0.07
2013-10-18,73.4,58.6,43.2,48.2,43.3,37.4,90,60,37,29.90,29.81,5,2,14,0.00
2013-10-19,60.8,47.1,42.3,41.5,38.1,32.7,88,73,45,29.87,29.78,4,1,12,0.12
2013-10-20,71.8,52.8,42.1,44.6,38.4,34.1,77,61,40,29.89,29.81,8,4,22,0.00
2013-10-21,64.8,52.0,40.3,47.2,40.7,26.4,77,66,53,29.91,29.80,5,3,13,0.00
2013-10-22,59.7,41.3,30.2,35.2,29.7,24.1,87,67,35,29.95,29.76,4,1,10,0.00
2013-10-23,51.4,40.4,33.3,35.8,31.2,26.7,91,72,43,29.95,29.73,6,2,17,0.02
2013-10-24,45.3,39.6,33.4,34.8,29.6,23.6,80,68,55,30.19,29.94,4,1,11,0.00
2013-10-25,58.5,40.0,28.2,29.3,25.1,22.3,80,59,33,30.34,30.14,4,1,11,0.00
2013-10-26,58.1,44.1,35.6,37.7,29.4,23.8,75,57,47,30.14,29.82,7,3,21,0.00
2013-10-27,54.3,35.7,29.5,37.4,30.2,26.7,91,81,50,30.01,29.94,1,0,5,0.00
2013-10-28,71.2,45.0,28.8,38.9,31.7,25.9,90,66,30,30.20,29.98,2,0,7,0.00
2013-10-29,62.6,46.8,27.9,42.4,37.1,25.1,89,71,48,30.26,30.09,2,0,6,0.00
2013-10-30,62.2,56.2,49.6,60.0,53.2,42.4,94,89,73,30.09,29.87,97,17,97,0.00
2013-11-1,46.4,45.5,43.2,41.5,41.0,39.6,87,84,83,29.70,29.68,1,0,4,2.94
2013-11-2,55.8,47.1,42.4,41.9,37.8,34.7,89,71,55,30.02,29.72,4,2,11,0.00
2013-11-3,63.3,45.1,32.5,41.2,35.3,30.2,92,71,42,30.23,30.02,3,1,9,0.01
2013-11-4,56.5,49.1,40.6,40.3,36.7,32.9,74,63,52,30.25,30.15,5,3,16,0.00
2013-11-5,52.3,50.3,48.9,45.0,40.4,38.9,83,69,66,30.24,30.20,3,1,8,0.00
2013-11-6,59.2,56.1,53.4,52.8,49.7,44.7,91,80,60,29.95,29.82,7,5,19,0.15
2013-11-7,55.8,42.6,33.6,32.6,29.3,26.2,77,61,37,30.19,30.09,6,2,14,0.00
2013-11-8,61.7,42.4,28.8,34.3,28.8,25.3,87,62,37,30.27,30.06,6,1,13,0.00
2013-11-9,68.5,52.9,41.9,42.5,34.2,25.5,61,51,40,30.06,29.88,7,4,24,0.00
2013-11-10,57.7,43.7,34.0,34.7,30.8,26.9,81,62,41,30.24,30.01,6,2,15,0.00
2013-11-11,53.6,44.0,30.2,38.5,33.0,24.8,87,67,50,30.26,29.98,6,3,15,0.00
2013-11-12,42.4,31.8,23.7,25.5,21.1,17.3,81,65,47,30.53,30.26,5,2,14,0.01
2013-11-13,48.0,32.7,19.0,20.7,17.4,14.5,83,57,34,30.51,30.23,5,2,14,0.00
2013-11-14,62.6,47.1,32.5,24.8,20.0,17.6,57,38,24,30.22,29.99,7,5,18,0.00
2013-11-15,59.5,46.7,40.8,35.5,26.2,20.2,76,47,35,30.01,29.94,6,3,16,0.00
2013-11-16,60.8,52.4,42.6,55.9,47.3,36.2,91,83,72,29.96,29.67,9,5,20,0.00
2013-11-17,68.4,59.5,48.9,60.1,52.7,38.9,95,80,54,29.70,29.30,11,6,34,0.07
2013-11-18,54.3,44.9,34.9,39.1,31.6,25.1,76,61,41,30.11,29.71,8,4,24,0.00
2013-11-19,34.9,33.2,31.5,24.9,24.3,23.8,73,70,67,30.15,30.11,2,1,6,0.00
2013-11-20,55.2,45.0,27.0,34.0,30.5,22.2,84,58,46,30.22,30.07,6,3,16,0.00
2013-11-21,48.0,45.7,43.9,39.8,35.5,31.8,81,69,55,30.16,30.08,4,2,10,0.05
2013-11-23,23.7,23.7,23.7,12.2,12.2,12.2,61,61,61,30.46,30.46,6,6,14,0.00
2013-11-24,20.8,19.9,18.7,9.7,8.8,7.5,66,62,56,30.43,30.39,0,0,3,0.00
2013-11-25,34.0,28.9,19.4,18.4,13.4,9.5,65,53,45,30.39,30.05,6,3,17,0.00
2013-11-26,41.2,34.0,30.0,26.4,23.5,18.6,80,66,54,30.07,29.86,6,2,16,0.00
2013-11-27,32.5,24.8,19.0,23.7,14.6,9.9,78,65,51,30.17,29.89,6,4,20,0.00
2013-11-28,43.9,28.0,18.5,18.4,14.0,9.9,73,57,36,30.33,30.12,7,2,20,0.00
2013-11-29,45.3,25.3,15.8,23.0,16.4,11.1,83,70,41,30.51,30.34,3,0,8,0.00
2013-11-30,58.6,38.7,26.1,31.1,23.6,17.9,72,57,35,30.37,30.02,6,2,17,0.00
2013-12-1,61.0,42.0,29.5,38.4,29.4,21.4,77,63,44,30.02,29.86,4,1,11,0.00
2013-12-2,49.3,39.8,33.4,37.4,32.8,28.8,88,77,60,29.86,29.68,3,1,8,0.00
2013-12-3,50.2,43.7,33.8,45.6,40.1,30.9,93,87,81,29.73,29.66,4,1,11,0.00
2013-12-4,60.8,52.8,43.7,55.5,49.6,41.0,93,89,80,29.72,29.54,6,3,16,0.02
2013-12-5,59.0,37.8,24.6,54.1,30.7,19.1,86,75,66,30.10,29.61,6,3,17,0.00
2013-12-6,30.2,26.0,22.6,21.1,18.8,15.0,85,74,66,30.32,30.07,4,2,11,0.00
2013-12-7,22.5,16.4,12.0,14.3,9.5,6.6,78,74,64,30.49,30.32,5,2,12,0.00
2013-12-8,29.7,27.4,25.7,26.8,22.6,18.9,90,82,73,30.14,29.88,5,3,12,0.00
2013-12-9,32.0,26.7,21.4,27.0,19.3,11.8,89,74,60,30.13,29.86,6,3,19,0.00
2013-12-10,35.1,24.8,10.9,15.8,11.5,2.9,72,58,44,30.22,30.02,7,3,22,0.00
2013-12-11,36.0,20.8,10.0,23.6,12.3,2.6,80,70,56,30.42,30.19,5,2,16,0.00
2013-12-12,30.6,18.7,4.3,5.1,1.0,-3.3,71,48,33,30.44,30.19,6,3,16,0.00
2013-12-13,44.2,26.7,17.8,22.8,12.2,3.4,62,55,44,30.19,30.01,6,2,11,0.00
2013-12-14,27.3,26.7,26.4,22.6,21.9,21.4,82,82,81,29.82,29.78,0,0,0,0.09
2013-12-15,28.2,23.0,18.0,23.0,15.6,10.2,84,73,65,30.00,29.82,0,0,0,0.00
2013-12-16,28.0,22.5,16.2,25.2,17.5,11.2,89,81,70,30.01,29.88,0,0,0,0.00
2013-12-17,31.1,26.0,21.0,25.2,20.5,16.6,90,80,67,30.03,29.90,4,1,12,0.00
2013-12-18,45.1,29.5,16.3,21.6,16.5,9.9,77,60,37,30.13,29.87,8,3,17,0.14
2013-12-19,49.5,34.8,34.2,41.0,19.3,18.4,74,54,53,29.87,29.77,6,6,12,0.14
2013-12-20,59.2,53.2,47.5,56.4,49.0,40.7,94,86,74,29.77,29.65,5,3,17,0.12
2013-12-21,52.7,42.9,37.0,48.3,39.7,34.1,91,89,82,29.70,29.39,5,2,13,0.51
2013-12-22,45.3,38.5,32.4,43.4,34.2,26.6,93,84,78,29.97,29.33,6,3,18,0.00
2013-12-23,32.2,28.1,22.5,26.5,20.8,14.2,80,74,67,30.32,29.98,5,4,12,0.00
2013-12-24,30.0,15.9,5.7,14.2,5.3,-2.4,70,63,46,30.46,30.32,6,3,17,0.00
2013-12-25,27.9,21.3,18.1,17.2,11.4,9.6,69,65,61,30.33,30.12,7,4,17,0.00
2013-12-28,43.3,42.0,41.0,26.9,26.5,26.1,55,54,52,29.93,29.77,4,2,8,0.00
2013-12-29,49.8,36.6,29.7,32.8,27.8,24.0,84,71,53,29.97,29.71,7,4,106,0.00
2013-12-30,29.7,24.0,0.0,24.0,15.9,9.0,79,66,54,30.18,29.97,3,1,8,0.00
2013-12-31,35.1,25.6,18.5,17.3,12.9,8.7,75,59,45,30.25,30.05,5,2,14,0.00
2014-1-1,39.0,28.0,20.3,26.2,20.3,14.9,81,73,60,30.15,29.93,4,2,10,0.00
2014-1-2,24.6,18.5,7.5,18.8,11.4,-3.7,82,74,55,30.22,29.81,6,3,17,0.01